www.pogodaiklimat.ru

Погода и климат >> Архив погоды >> Россия >> Свердловская область >> Верхотурье


ПОГОДА в Верхотурье

  • Прогноз погоды в Верхотурье
  • Монитор погоды в Верхотурье

АРХИВ ПОГОДЫ в Верхотурье

Время (UTC), дата Ветер
(напр.,м/с)
 
Видим.   Явления Облачность Т
(С)
Тd
(С)
f
(%)
Тe
(С)
Тes
(С)
Комфортность P
(гПа)
Po
(гПа)
Тmin
(С)
Tmax
(С)
R
(мм)
R24
(мм)
S
(см)
12 19.03 Ю 1 50 км 3/0
[Ci fib]
+8.9 -12.9 20 +9 +11 1026.1 1010.6
15 19.03 ЮВ 2 20 км 4/0
[Ci fib]
+2.2 -13.6 30 0 0 1026.1 1010.3 +9.8
18 19.03 ЮВ 1 20 км ясно -3.4 -10.4 58 -5 -5 1026.2 1010.0
21 19.03 ЮВ 1 20 км ясно -6.1 -11.6 65 -8 -8 1025.6 1009.3
00 20.03 ЮВ 2 20 км ясно -7.7 -11.3 75 -12 -12 1024.4 1008.0
03 20.03 ЮВ 1 50 км 10/0
[Ac trans Cs]
-8.1 -11.7 75 -10 -10 1023.6 1007.2 -9.2 43
06 20.03 ЮЗ 2 50 км 10/0
[Ac trans Cs]
+4.9 -11.9 28 +3 +7 1021.4 1005.8
09 20.03 Ю 2 50 км 4/0
[Ci sp]
+8.6 -12.1 22 +8 +13 1019.3 1003.9
12 20.03 ЮЗ 3 50 км 10/0
[Cs]
+9.8 -12.6 19 +8 +9 1017.7 1002.4
15 20.03 ЮЗ 2 20 км 10/4 600 м
[Sc Cs]
+6.4 -9.6 31 +5 +5 1017.3 1001.8 +10.1
18 20.03 ЮЗ 3 20 км 10/5 600 м
[Sc Ac As]
+5.6 -4.0 50 +3 +3 1016.7 1001.2
21 20.03 З 1 20 км 10/8 300 м
[Cb calv Ac As]
+3.7 -3.1 61 +3 +3 1016.7 1001.1
00 21.03 ЮЗ 2 20 км 10/6 300 м
[Cb calv Ac As]
+2.7 -1.5 74 -0 -0 1016.6 1001.0
03 21.03 ЮЗ 2 20 км 10/4 300 м
[Cb calv As op]
+2.1 -1.5 77 -1 -1 1016.1 1000.5 +2.1 40
06 21.03 ЮЗ 1 4000 м слаб. дождь со снегом 10/4 600 м
[Sc As op]
+1.1 -0.4 90 -1 -0 1015.9 1000.2 +1.1
09 21.03 З 1 10 км слаб. дождь 10/6 600 м
[Sc Ac As]
+2.3 +0.3 87 +1 +1 1015.5 999.9
12 21.03 З 1 50 км {снег, дождь} 5/4 300 м
[Cb calv Ac trans]
+3.6 +0.1 78 +2 +3 1015.3 999.7
15 21.03 ЮЗ 1 20 км 4/3 600 м
[Sc Ac trans]
+1.5 -0.1 89 -0 -0 1016.0 1000.3 +3.8 2
18 21.03 З 1 20 км 1/1 600 м
[Sc]
-0.5 -1.7 92 -3 -3 1017.1 1001.3
21 21.03 штиль 0 20 км 3/0
[Ci sp]
-4.1 -4.9 94 -5 -5 1017.2 1001.1
00 22.03 В 1 4000 м туман поземный 6/0
[Ci sp]
-7.3 -8.0 95 -10 -10 1017.4 1001.1
03 22.03 ЮВ 1 4000 м дымка 9/3 600 м
[Sc Ac trans Ci sp]
-6.3 -7.3 93 -9 -8 1017.2 1001.0 -7.7 38
06 22.03 В 1 50 км 8/1 600 м
[Sc Ac trans Ci sp]
+0.7 -1.5 85 -1 +2 1016.6 1000.9
09 22.03 ЮВ 1 50 км 9/4 300 м
[Cb calv Ac trans Ci sp]
+4.5 -3.6 56 +4 +6 1015.3 999.8
12 22.03 Ю 2 50 км 9/6 300 м
[Cb calv Ac trans]
+4.2 -3.7 56 +2 +2 1014.3 998.8
15 22.03 Ю 1 20 км 10/5 300 м
[Cb calv Ac As]
+2.2 -2.2 73 +1 +1 1014.8 999.2 +5.7
18 22.03 В 1 10 км слаб. дождь 10/6 600 м
[Sc As op]
+0.9 -0.5 90 -1 -1 1015.3 999.6
21 22.03 штиль 0 4000 м слаб. дождь со снегом 10/10 300 м
[Frnb Ns]
+0.3 -0.5 94 -1 -1 1015.1 999.4
00 23.03 штиль 0 4000 м слаб. снег {дождь} 10/10 300 м
[Frnb Ns]
+0.1 -0.7 94 -1 -1 1015.4 999.6
03 23.03 СЗ 1 4000 м слаб. снег 10/10 300 м
[Frnb Ns]
+0.3 -0.4 95 -2 -2 1016.6 1000.8 0.0 4 39
06 23.03 СЗ 1 20 км в посл. час снег 9/8 300 м
[Cb calv Ac und]
+2.0 -0.2 85 0 +1 1018.5 1002.8
09 23.03 З 2 50 км 8/8 300 м
[Cb calv]
+6.2 -4.7 46 +5 +6 1018.8 1003.3
12 23.03 З 1 50 км 5/4 300 м
[Cb calv Ac trans]
+5.4 -7.8 38 +5 +6 1018.9 1003.4
15 23.03 З 1 20 км 1/1 600 м
[Sc]
-0.1 -6.1 64 -2 -2 1020.1 1004.2 +7.0 0.4
18 23.03 штиль 0 20 км 1/1 600 м
[Sc]
-4.4 -6.2 87 -5 -5 1021.2 1005.1
21 23.03 З 1 20 км 3/3 600 м
[Sc Ac trans]
-5.3 -6.5 91 -8 -8 1021.6 1005.4
00 24.03 штиль 0 20 км 3/3 600 м
[Sc Ac trans]
-8.2 -9.2 92 -9 -9 1021.5 1005.2
03 24.03 штиль 0 10 км местами туман поземный 3/1 600 м
[Sc Ac trans]
-7.3 -8.5 91 -8 -7 1021.5 1005.2 -9.3 35
06 24.03 штиль 0 50 км ясно +3.7 -5.5 51 +3 +10 1020.6 1004.9
09 24.03 Ю 3 50 км 4/4 600 м
[Cu Sc]
+5.8 -6.0 42 +3 +6 1019.0 1003.5
12 24.03 ЮВ 3 50 км 9/8 600 м
[Cu Sc Ac und]
+5.5 -3.6 52 +3 +3 1017.4 1001.9
15 24.03 ЮВ 2 20 км 8/4 300 м
[Cb calv Ac und]
+3.0 -3.5 62 0 0 1016.2 1000.6 +6.6
18 24.03 ЮЗ 1 20 км 4/0
[Ci sp]
+1.2 -2.5 76 -0 -0 1016.0 1000.2
21 24.03 Ю 1 20 км 9/4 600 м
[Sc Ac und]
+0.7 -2.2 81 -1 -1 1016.4 1000.7
00 25.03 Ю 1 20 км 10/0
[Cs]
-2.4 -3.5 92 -5 -5 1016.6 1000.7
03 25.03 ЮВ 1 10 км 8/3 600 м
[Sc Ci]
-3.4 -4.2 94 -6 -5 1016.6 1000.6 -4.6 32
06 25.03 ЮВ 3 50 км 10/0
[Cs]
+3.3 -2.8 64 -0 +3 1014.4 998.9
09 25.03 ЮВ 5 50 км 10/1 600 м
[Sc Ac trans Cs]
+6.7 -3.6 48 +3 +5 1011.0 995.7
12 25.03 ЮВ 6-11
{12}
50 км 10/3 600 м
[Sc As op]
+6.8 -2.3 52 +3 +3 1007.3 992.0
15 25.03 ЮВ 7-12
{13}
10 км слаб. ливневой дождь 10/8 300 м
[Cb calv As op]
+6.0 -2.8 53 +1 +1 1003.8 988.5 +7.0 0.1
18 25.03 Ю 6-11
{15}
10 км слаб. дождь 10/10 300 м
[Frnb Ns]
+2.9 +0.8 86 -3 -3 1002.9 987.5
21 25.03 Ю 4
{13}
10 км слаб. дождь 10/10 300 м
[Frnb Ns]
+1.3 -0.1 90 -4 -4 1002.3 986.8
00 26.03 Ю 3 10 км слаб. дождь 10/8 300 м
[Frnb As op]
+0.9 -0.5 90 -4 -4 1000.9 985.4
03 26.03 Ю 3 20 км {дождь} 9/8 600 м
[Sc Ac und]
+0.6 -2.6 79 -4 -4 1000.3 984.8 +0.5 2 26
06 26.03 Ю 6-10
{11}
50 км {дождь} 10/8 300 м
[Cb calv Ac As]
+2.2 -3.6 65 -3 -3 999.2 983.8
09 26.03 ЮЗ 6-11
{12}
50 км {ливн. осадки} 10/8 300 м
[Cb calv Ac As]
+3.4 -2.2 67 -2 -2 1000.5 985.1

 

Местоположение метеостанции Верхотурье (Свердловская область, Россия): широта 58.87 долгота 60.78 высота над уровнем моря 126 м.

В архиве по умолчанию представлена погода в Верхотурье за последнюю неделю. Архивные данные за месяц целиком и за предыдущие месяцы, начиная с января 2011 года, Вы можете получить, выбрав интересующий диапазон дат из раскрывающегося списка и нажав кнопку "Ввод!".


*Определитесь, кто Вы:
робот инопланетянин человек

Внимание! Время в таблицах - всемирное. Для получения местного времени необходимо прибавить поправку, которая равна 5 ч.

Смотрите также архив погоды в соседних городах и на ближайших метеорологических станциях:

Погода в Качканаре (Свердловская область, Россия) (75 км)
Погода в Серове (Свердловская область, Россия) (82 км)
Погода в Кушве (Свердловская область, Россия) (85 км)
Погода в Карпинске (Свердловская область, Россия) (107 км)
Погода в Гарях (Свердловская область, Россия) (108 км)
Погода в Кытлыме (Свердловская область, Россия) (113 км)
Погода в Нижнем Тагиле (Свердловская область, Россия) (118 км)
Погода в Бисере (Пермский край, Россия) (118 км)
Погода в Алапаевске (Свердловская область, Россия) (123 км)
Погода в Висиме (Свердловская область, Россия) (152 км)

Пояснения к столбцам:

Ветер - указаны скорость ветра в м/с - средняя за 10 мин, порывы в срок и между сроками (в фигурных скобках) и направление, откуда дует ветер: С - северный, СВ - северо-восточный, В - восточный, ЮВ - юго-восточный, Ю - южный, ЮЗ - юго-западный, З - западный, СЗ - северо-западный.
Видимость - горизонтальная дальность видимости в метрах или километрах. При видимости от 1 до 10 км при отсутствии осадков обычно наблюдается дымка, при ухудшении видимости до 1 км и менее - туман. В сухую погоду видимость может ухудшаться дымом, пылью или мглою.
Явления - указаны атмосферные явления, наблюдавшиеся в срок или в последний час перед сроком; фигурными скобками обозначены явления, наблюдавшиеся между сроками (за 1-3 часа до срока); квадратными скобками обозначены град или гололедные отложения с указанием их диаметра в мм.
Облачность - указаны через наклонную черту общая и нижняя облачность в баллах и высота нижней границы облаков в метрах; квадратными скобками обозначены формы облаков: Ci - перистые, Cs - перисто-слоистые, Cc - перисто-кучевые, Ac - высококучевые, As - высокослоистые, Sc - слоисто-кучевые, Ns - слоисто-дождевые, Cu - кучевые, Cb - кучево-дождевые. Подробнее классификацию облаков см. в Атласе облаков (PDF).
T - Температура воздуха - температура, измеренная на высоте 2 м над землей.
Td - Температура точки росы - температура, при понижении до которой содержащийся в воздухе водяной пар достигнет насыщения.
f - Относительная влажность воздуха - влажноcть воздуха, измеренная на высоте 2 м над землей.
Te - Эффективная температура - температура, которую ощущает одетый по сезону человек в тени. Характеристика душности погоды. При расчете учитывается влияние влажности воздуха и скорости ветра на теплоощущения человека.
Tes - Эффективная температура на солнце - температура, которую ощущает человек, с поправкой на солнечный нагрев. Характеристика знойности погоды. Зависит от высоты солнца над горизонтом, облачности и скорости ветра. Ночью, в пасмурную погоду, а также при ветре 12 м/с и более поправка равна нулю.
P - Атмосферное давление - приведенное к уровню моря атмосферное давление.
Po - Атмосферное давление - измеренное на уровне метеостанции атмосферное давление.
Tmin - Минимальная температура - минимум температуры воздуха на высоте 2 м над землей.
Tmax - Максимальная температура - максимум температуры воздуха на высоте 2 м над землей.
R - Количество осадков - Количество выпавших осадков за период времени, мм. При наведении курсора мыши на число - период времени, за который выпало указанное количество осадков.
R24 - Количество осадков - Количество выпавших осадков за 24 часа, мм.
S - Снежный покров - Высота снежного покрова, см. При наведении курсора мыши на число - состояние снежного покрова и степень покрытия местности в баллах.